Location: Newark
(5.8900°S, 42.6378°W)
Time: 17:09:11
(UTC+00:00)

Vanguard 1 Rocket - Pass Details

Date: 18 October 2019
Orbit: 651 x 4226 km, 34.3° (Epoch: 17 November)

Event Time Altitude Azimuth Distance (km) Brightness Sun altitude
Rises 15:20:13 0° 313° (NW) 6,665 11.9 78.4°
Reaches altitude 10° 15:29:45 10° 340° (NNW) 6,503 11.9 76.1°
Maximum altitude 15:37:57 13° 2° (N) 6,777 12.0 74.1°
Drops below altitude 10° 15:47:10 10° 24° (NNE) 7,352 12.0 71.9°
Sets 16:00:23 0° 49° (NE) 8,391 12.1 68.7°
